Date String (YYYY-MM-DD hh:mm:ss) UTC,Instrument flags,Ambient pressure (hPa),Sample flow (lpm),Bypass flow (lpm),Sample temperature (°C),Ambient temperature (°C),ASC tube jacket temperature (°C),LED temperature (°C),Box temperature (°C),Sample RH (%),Span deviation,Mass concentration (μg/m³),Mass concentration (μg/m³),Mass concentration (μg/m³)
DateTimeUTC,F1_M11,P_M11,Q1_M11,Q2_M11,T1_M11,T2_M11,T3_M11,T4_M11,T5_M11,U1_M11,ZSPAN_M11,X0_M11,X2_M11,X1_M11
2021-12-08 19:00:00,,0815.1,5.00,0.00,24.4,23.7,00.0,33.3,26.2,10.2,0000.0,0014.09,0003.96,0002.24
2021-12-08 19:01:00,,0815.1,5.02,0.00,24.4,23.7,00.0,33.3,26.3,10.8,0000.0,0013.87,0003.98,0002.28
2021-12-08 19:02:00,,0815.2,5.00,0.00,24.4,23.7,00.0,33.3,26.3,11.2,0000.0,0015.09,0004.06,0002.37
2021-12-08 19:03:00,,0815.2,5.00,0.00,24.4,23.7,00.0,33.4,26.2,11.3,0000.0,0015.04,0004.14,0002.51
2021-12-08 19:04:00,,0815.2,5.00,0.00,24.4,23.7,00.0,33.4,26.3,11.2,0000.0,0013.45,0004.16,0002.64
2021-12-08 19:05:00,,0815.1,5.01,0.00,24.4,23.7,00.0,33.4,26.2,11.3,0000.0,0013.24,0004.21,0002.73
2021-12-08 19:06:00,,0815.0,4.99,0.00,24.4,23.7,00.0,33.4,26.2,11.2,0000.0,0012.58,0004.27,0002.81
2021-12-08 19:07:00,,0814.9,5.00,0.00,24.4,23.7,00.0,33.4,26.2,11.3,0000.0,0012.87,0004.37,0002.96
2021-12-08 19:08:00,,0815.1,4.99,0.00,24.4,23.6,00.0,33.4,26.2,11.3,0000.0,0012.73,0004.46,0003.12
2021-12-08 19:09:00,,0814.9,5.00,0.00,24.4,23.6,00.0,33.4,26.2,11.4,0000.0,0012.91,0004.61,0003.21
2021-12-08 19:10:00,,0814.9,5.00,0.00,24.4,23.6,00.0,33.4,26.1,11.4,0000.0,0012.56,0004.72,0003.29
2021-12-08 19:11:00,,0814.8,5.00,0.00,24.4,23.6,00.0,33.4,26.2,11.4,0000.0,0013.22,0004.77,0003.35
2021-12-08 19:12:00,,0814.8,5.01,0.00,24.4,23.6,00.0,33.3,26.2,11.4,0000.0,0014.58,0004.83,0003.39
2021-12-08 19:13:00,,0814.8,4.98,0.00,24.4,23.6,00.0,33.3,26.2,11.4,0000.0,0014.34,0004.91,0003.43
2021-12-08 19:14:00,,0815.0,5.01,0.00,24.4,23.6,00.0,33.3,26.2,11.4,0000.0,0015.15,0004.94,0003.45
2021-12-08 19:15:00,,0814.8,4.99,0.00,24.4,23.7,00.0,33.3,26.2,11.1,0000.0,0015.73,0004.97,0003.44
2021-12-08 19:16:00,,0814.9,5.02,0.00,24.4,23.7,00.0,33.4,26.3,10.6,0000.0,0016.10,0004.94,0003.43
2021-12-08 19:17:00,,0814.9,5.00,0.00,24.4,23.7,00.0,33.4,26.3,11.0,0000.0,0016.58,0004.89,0003.41
2021-12-08 19:18:00,,0814.8,4.99,0.00,24.4,23.7,00.0,33.4,26.3,11.3,0000.0,0017.02,0004.82,0003.40
2021-12-08 19:19:00,,0814.8,5.00,0.00,24.4,23.7,00.0,33.4,26.2,11.3,0000.0,0017.50,0004.81,0003.39
2021-12-08 19:20:00,,0814.8,5.01,0.00,24.4,23.7,00.0,33.4,26.3,11.4,0000.0,0017.46,0004.85,0003.39
2021-12-08 19:21:00,,0814.9,4.99,0.00,24.4,23.7,00.0,33.4,26.3,11.4,0000.0,0017.54,0004.84,0003.38
2021-12-08 19:22:00,,0815.0,5.00,0.00,24.4,23.7,00.0,33.4,26.2,11.4,0000.0,0018.18,0004.85,0003.39
2021-12-08 19:23:00,,0814.7,5.00,0.00,24.4,23.7,00.0,33.4,26.2,11.4,0000.0,0017.02,0004.88,0003.40
2021-12-08 19:24:00,,0815.1,4.99,0.00,24.4,23.6,00.0,33.4,26.1,11.4,0000.0,0016.71,0004.86,0003.41
2021-12-08 19:25:00,,0815.0,5.01,0.00,24.4,23.6,00.0,33.4,26.1,11.3,0000.0,0015.94,0004.80,0003.42
2021-12-08 19:26:00,,0814.8,4.99,0.00,24.3,23.6,00.0,33.4,26.1,09.7,0000.0,0015.47,0004.79,0003.41
2021-12-08 19:27:00,,0814.7,5.02,0.00,24.3,23.6,00.0,33.4,26.1,10.6,0000.0,0015.27,0004.76,0003.39
2021-12-08 19:28:00,,0814.6,4.98,0.00,24.4,23.6,00.0,33.4,26.2,10.4,0000.0,0014.53,0004.80,0003.40
2021-12-08 19:29:00,,0814.6,5.00,0.00,24.4,23.6,00.0,33.4,26.2,10.2,0000.0,0014.07,0004.76,0003.38
2021-12-08 19:30:00,,0814.6,5.01,0.00,24.4,23.6,00.0,33.4,26.2,07.2,0000.0,0013.10,0004.61,0003.28
2021-12-08 19:31:00,,0814.4,4.99,0.00,24.4,23.6,00.0,33.3,26.2,06.6,0000.0,0012.56,0004.32,0003.12
2021-12-08 19:32:00,,0814.5,5.01,0.00,24.4,23.7,00.0,33.4,26.3,09.4,0000.0,0012.47,0004.16,0002.99
2021-12-08 19:33:00,,0814.5,4.99,0.00,24.4,23.7,00.0,33.4,26.2,10.0,0000.0,0011.70,0004.12,0002.93
2021-12-08 19:34:00,,0814.4,5.00,0.00,24.4,23.7,00.0,33.4,26.3,09.5,0000.0,0011.55,0004.02,0002.85
2021-12-08 19:35:00,,0814.4,5.00,0.00,24.4,23.7,00.0,33.4,26.3,09.7,0000.0,0010.82,0003.91,0002.72
2021-12-08 19:36:00,,0814.4,4.99,0.00,24.5,23.7,00.0,33.4,26.3,09.9,0000.0,0010.27,0003.85,0002.62
2021-12-08 19:37:00,,0814.4,5.00,0.00,24.5,23.8,00.0,33.4,26.3,09.8,0000.0,0010.00,0003.78,0002.58
2021-12-08 19:38:00,,0814.4,5.00,0.00,24.5,23.8,00.0,33.4,26.4,09.7,0000.0,0009.99,0003.72,0002.57
2021-12-08 19:39:00,,0814.4,4.99,0.00,24.5,23.8,00.0,33.4,26.4,10.0,0000.0,0009.96,0003.68,0002.53
2021-12-08 19:40:00,,0814.4,5.01,0.00,24.5,23.8,00.0,33.4,26.4,09.5,0000.0,0009.66,0003.65,0002.51
2021-12-08 19:41:00,,0814.5,5.00,0.00,24.5,23.8,00.0,33.4,26.4,09.5,0000.0,0010.61,0003.79,0002.59
2021-12-08 19:42:00,,0814.4,4.99,0.00,24.5,23.8,00.0,33.4,26.4,09.3,0000.0,0012.56,0003.99,0002.77
2021-12-08 19:43:00,,0814.3,5.01,0.00,24.5,23.8,00.0,33.4,26.4,08.8,0000.0,0012.60,0004.11,0002.83
2021-12-08 19:44:00,,0814.3,5.00,0.00,24.6,23.8,00.0,33.5,26.4,09.4,0000.0,0012.58,0004.03,0002.76
2021-12-08 19:45:00,,0814.4,5.00,0.00,24.6,23.9,00.0,33.5,26.4,10.2,0000.0,0012.75,0004.08,0002.78
2021-12-08 19:46:00,,0814.4,4.99,0.00,24.6,23.9,00.0,33.5,26.4,10.4,0000.0,0013.09,0004.23,0002.88
2021-12-08 19:47:00,,0814.4,5.00,0.00,24.6,23.8,00.0,33.5,26.4,10.5,0000.0,0014.28,0004.33,0002.95
2021-12-08 19:48:00,,0814.5,5.01,0.00,24.6,23.8,00.0,33.5,26.4,10.5,0000.0,0015.28,0004.40,0003.00
2021-12-08 19:49:00,,0814.3,5.00,0.00,24.5,23.8,00.0,33.5,26.4,10.5,0000.0,0015.08,0004.46,0003.07
2021-12-08 19:50:00,,0814.2,4.99,0.00,24.5,23.8,00.0,33.5,26.4,10.6,0000.0,0015.39,0004.51,0003.12
2021-12-08 19:51:00,,0814.2,4.99,0.00,24.5,23.8,00.0,33.5,26.4,09.8,0000.0,0016.61,0004.54,0003.14
2021-12-08 19:52:00,,0814.2,5.01,0.00,24.5,23.8,00.0,33.5,26.4,09.2,0000.0,0016.97,0004.50,0003.14
2021-12-08 19:53:00,,0814.1,5.01,0.00,24.5,23.8,00.0,33.5,26.3,08.9,0000.0,0015.58,0004.44,0003.13
2021-12-08 19:54:00,,0814.1,4.99,0.00,24.5,23.8,00.0,33.5,26.3,08.6,0000.0,0015.61,0004.39,0003.14
2021-12-08 19:55:00,,0814.1,5.01,0.00,24.5,23.8,00.0,33.5,26.3,08.3,0000.0,0016.45,0004.41,0003.14
2021-12-08 19:56:00,,0814.3,5.01,0.00,24.5,23.8,00.0,33.5,26.3,07.8,0000.0,0016.71,0004.31,0003.01
2021-12-08 19:57:00,,0814.2,5.00,0.00,24.5,23.8,00.0,33.5,26.3,07.4,0000.0,0016.58,0004.08,0002.84
2021-12-08 19:58:00,,0814.1,4.99,0.00,24.6,23.8,00.0,33.5,26.4,07.2,0000.0,0016.22,0003.86,0002.63
2021-12-08 19:59:00,,0814.1,5.01,0.00,24.6,23.9,00.0,33.5,26.4,07.2,0000.0,0014.90,0003.69,0002.43
